DW8618 Nerja ES current weather conditions

sailwx.info

Wind from 260

Air temperature 19.4° C
Dewpoint 13.8° C

Last reported at 2017-Apr-26 19:01 UTC.
Time now 2017-Apr-26 19:24 UTC

Location: N 36°46' W 003°52'.
View on Google Maps.

See reports from other nearby stations

  
Tides and Currents Weather Stations Pressure Air Temp Water Temp Dewpoint Dewpoint Depression Visibility Wind Speed Wind Dir Waves Ship Positions
date/time (UTC)wind fromknots sea level pressurealtimeterstation pressurevisibilityair tempwater tempwave heightnotes
2017-Apr-26 19:01 260 19.4
2017-Apr-26 18:45 268 19.4
2017-Apr-26 18:31 269 19.4
2017-Apr-26 18:15 236 20.0
2017-Apr-26 18:01 244 20.6
2017-Apr-26 17:45 273 20.6
2017-Apr-26 17:30 281 0 gusting 6 21.1
2017-Apr-26 17:16 272 1 gusting 9 21.1
2017-Apr-26 17:01 263 5 gusting 13 21.1
2017-Apr-26 16:45 254 2 gusting 10 20.6
2017-Apr-26 16:30 251 6 gusting 13 20.6
2017-Apr-26 16:15 239 0 gusting 9 21.7
2017-Apr-26 16:01 255 3 gusting 13 21.7
2017-Apr-26 15:45 258 3 gusting 16 21.1
2017-Apr-26 15:30 295 1 gusting 16 20.6
2017-Apr-26 15:15 215 6 gusting 19 21.1
2017-Apr-26 15:01 287 8 gusting 17 21.7
2017-Apr-26 14:45 236 8 gusting 16 21.1
2017-Apr-26 14:30 269 3 gusting 18 21.7
2017-Apr-26 14:15 235 5 gusting 15 21.7
2017-Apr-26 14:01 241 5 gusting 15 21.7
2017-Apr-26 13:46 283 2 gusting 14 21.7
2017-Apr-26 13:30 252 4 gusting 14 22.2
2017-Apr-26 13:15 248 6 gusting 13 22.2
2017-Apr-26 13:01 265 1 gusting 11 21.7
2017-Apr-26 12:45 261 6 gusting 17 21.7
2017-Apr-26 12:30 271 5 gusting 15 22.2
2017-Apr-26 12:15 278 5 gusting 12 22.2
2017-Apr-26 12:01 241 1 gusting 6 21.7
2017-Apr-26 11:45 277 2 gusting 14 21.7
2017-Apr-26 11:30 326 4 gusting 15 22.2
2017-Apr-26 11:16 266 3 gusting 13 21.7
2017-Apr-26 11:01 256 6 gusting 14 21.7
2017-Apr-26 10:46 175 5 gusting 12 21.7
2017-Apr-26 10:30 246 5 gusting 14 21.7
2017-Apr-26 10:15 240 7 gusting 16 21.7
2017-Apr-26 10:01 261 3 gusting 11 21.7
2017-Apr-26 09:45 271 1 gusting 9 21.7
2017-Apr-26 09:30 282 6 gusting 10 21.1
2017-Apr-26 09:16 216 3 gusting 9 20.6
2017-Apr-26 09:01 265 4 gusting 13 20.6
2017-Apr-26 08:46 119 20.0
2017-Apr-26 08:30 115 19.4
2017-Apr-26 08:15 119 1 gusting 5 18.9
2017-Apr-26 08:01 155 0 gusting 4 18.3
2017-Apr-26 07:46 011 18.3
2017-Apr-26 07:30 011 17.8
2017-Apr-26 07:15 011 16.7
2017-Apr-26 07:01 011 16.1
2017-Apr-26 06:45 011 15.6
2017-Apr-26 06:30 005 15.6
2017-Apr-26 06:15 005 15.6
2017-Apr-26 06:01 005 15.6
2017-Apr-26 05:46 005 16.1
2017-Apr-26 05:30 005 16.1
2017-Apr-26 05:16 005 15.6
2017-Apr-26 05:01 005 15.6
2017-Apr-26 04:46 005 15.0
2017-Apr-26 04:30 005 15.0
2017-Apr-26 04:15 005 0 gusting 4 15.0
2017-Apr-26 04:01 005 15.0
2017-Apr-26 03:45 005 15.6
2017-Apr-26 03:31 005 15.6
2017-Apr-26 03:15 005 15.6
2017-Apr-26 03:01 005 15.6
2017-Apr-26 02:45 005 16.1
2017-Apr-26 02:30 005 15.6
2017-Apr-26 02:15 005 15.6
2017-Apr-26 02:01 005 15.6
2017-Apr-26 01:45 005 15.6
2017-Apr-26 01:31 009 0 gusting 3 15.6
2017-Apr-26 01:15 011 16.1
2017-Apr-26 00:45 355 16.1
2017-Apr-26 00:31 355 16.7
2017-Apr-26 00:15 355 16.7
2017-Apr-26 00:01 355 16.7
2017-Apr-25 23:45 355 16.1
2017-Apr-25 23:30 355 16.1
2017-Apr-25 23:15 355 16.1
2017-Apr-25 23:01 328 16.1
2017-Apr-25 22:45 327 16.7
2017-Apr-25 22:30 309 16.7
2017-Apr-25 22:15 309 17.2
2017-Apr-25 22:01 309 16.7
2017-Apr-25 21:45 309 17.2
2017-Apr-25 21:30 309 17.2
2017-Apr-25 21:15 309 17.2
2017-Apr-25 21:01 309 17.2
2017-Apr-25 20:45 308 17.2
2017-Apr-25 20:30 254 17.2
2017-Apr-25 20:15 152 17.2
2017-Apr-25 20:01 153 17.2
2017-Apr-25 19:45 154 17.8
2017-Apr-25 19:30 154 0 gusting 3 17.8
2017-Apr-25 19:01 229 0 gusting 3 17.8
2017-Apr-25 18:45 227 18.3
2017-Apr-25 18:30 229 18.3
2017-Apr-25 18:16 236 18.9
2017-Apr-25 18:01 210 3 gusting 8 20.0
2017-Apr-25 17:45 282 0 gusting 6 20.0
2017-Apr-25 17:30 218 2 gusting 6 20.0
2017-Apr-25 17:15 227 1 gusting 6 20.0
2017-Apr-25 17:01 224 1 gusting 6 20.6
2017-Apr-25 16:45 219 1 gusting 6 20.6
2017-Apr-25 16:30 239 4 gusting 7 20.6
2017-Apr-25 16:15 235 2 gusting 6 21.7
2017-Apr-25 16:01 223 1 gusting 9 21.1
2017-Apr-25 15:45 232 2 gusting 8 21.1
2017-Apr-25 15:30 210 1 gusting 6 21.1
2017-Apr-25 15:16 236 1 gusting 6 20.6
2017-Apr-25 15:01 199 0 gusting 6 20.6
2017-Apr-25 14:46 197 2 gusting 5 20.0
2017-Apr-25 14:30 205 1 gusting 5 19.4
2017-Apr-25 14:15 215 20.6
2017-Apr-25 14:01 205 20.6
2017-Apr-25 13:45 200 2 gusting 6 20.6
2017-Apr-25 13:31 200 0 gusting 6 20.0
2017-Apr-25 13:15 187 4 gusting 6 19.4
2017-Apr-25 13:01 204 0 gusting 6 20.0
2017-Apr-25 12:45 196 3 gusting 6 19.4
2017-Apr-25 12:30 186 5 gusting 8 18.9
2017-Apr-25 12:16 196 3 gusting 6 18.9
2017-Apr-25 12:01 196 2 gusting 7 18.9
2017-Apr-25 11:45 194 5 gusting 8 18.3
2017-Apr-25 11:30 200 5 gusting 10 18.9
2017-Apr-25 11:15 187 5 gusting 7 18.3
2017-Apr-25 11:01 212 4 gusting 9 18.3
2017-Apr-25 10:45 201 4 gusting 6 18.3
2017-Apr-25 10:30 213 3 gusting 6 17.8
2017-Apr-25 10:15 213 5 gusting 9 17.8
2017-Apr-25 10:01 215 2 gusting 11 17.8
2017-Apr-25 09:45 200 4 gusting 7 17.8
2017-Apr-25 09:30 203 4 gusting 6 17.8
2017-Apr-25 09:16 229 2 gusting 5 18.3
2017-Apr-25 09:01 341 0 gusting 2 18.3
2017-Apr-25 08:45 343 18.3
2017-Apr-25 08:30 348 18.3
2017-Apr-25 08:16 348 17.2
2017-Apr-25 08:01 348 17.2
2017-Apr-25 07:45 349 17.8
2017-Apr-25 07:30 349 17.8
2017-Apr-25 07:15 349 17.2
2017-Apr-25 07:01 349 16.1
2017-Apr-25 06:45 349 15.6
2017-Apr-25 06:30 349 15.0
2017-Apr-25 06:15 349 15.0
2017-Apr-25 06:01 349 14.4
2017-Apr-25 05:46 349 15.0
2017-Apr-25 05:30 349 15.0
2017-Apr-25 05:15 349 15.0
2017-Apr-25 05:01 349 15.0
2017-Apr-25 04:45 349 15.0
2017-Apr-25 04:30 349 15.0
2017-Apr-25 04:15 346 2 gusting 6 15.6
2017-Apr-25 04:01 355 3 gusting 7 15.6
2017-Apr-25 03:45 355 3 gusting 6 15.0
2017-Apr-25 03:30 350 3 gusting 6 14.4
2017-Apr-25 03:15 355 3 gusting 5 13.9
2017-Apr-25 03:01 351 3 gusting 6 13.9
2017-Apr-25 02:45 351 1 gusting 4 13.9
2017-Apr-25 02:31 350 3 gusting 4 13.9
2017-Apr-25 02:15 350 2 gusting 5 13.9
2017-Apr-25 02:01 350 3 gusting 4 13.9
2017-Apr-25 01:45 350 3 gusting 5 13.9
2017-Apr-25 01:30 349 1 gusting 4 13.9
2017-Apr-25 01:15 349 3 gusting 4 14.4
2017-Apr-25 01:01 348 3 gusting 5 14.4
2017-Apr-25 00:45 348 2 gusting 5 14.4
2017-Apr-25 00:30 340 4 gusting 6 14.4
2017-Apr-25 00:15 334 2 gusting 4 14.4
2017-Apr-25 00:01 303 2 gusting 3 14.4
2017-Apr-24 23:45 293 15.0
2017-Apr-24 23:31 293 14.4
2017-Apr-24 23:15 293 14.4
2017-Apr-24 23:01 293 15.0
2017-Apr-24 22:45 293 0 gusting 3 15.6
2017-Apr-24 22:30 293 15.6
2017-Apr-24 22:16 293 15.6
2017-Apr-24 22:01 293 0 gusting 4 15.6
2017-Apr-24 21:46 279 1 gusting 2 15.6
2017-Apr-24 21:30 279 16.1
2017-Apr-24 21:15 279 16.1
2017-Apr-24 21:01 279 16.1
2017-Apr-24 20:46 279 16.1
2017-Apr-24 20:30 279 16.1
2017-Apr-24 20:15 279 16.1
2017-Apr-24 20:01 279 16.1
2017-Apr-24 19:45 279 15.6
2017-Apr-24 19:30 279 15.6
2017-Apr-24 19:16 279 16.1
2017-Apr-24 19:01 279 16.1